| time (UTC) | temp F | wind direction | speed MPH | gust MPH | rain 1hr in | rain 24hr in | rain mn in | humidity % | barometer mb |
| 20260503040313 | 56 | 167 | 11.0 | 17.0 | 0.00 | 0.00 | 0.00 | 21 | 1008.0 |
| 20260503035234 | 56 | 175 | 12.0 | 16.0 | 0.00 | 0.00 | 0.00 | 21 | 1008.0 |
| 20260503034241 | 57 | 170 | 10.0 | 14.0 | 0.00 | 0.00 | 0.00 | 21 | 1008.0 |
| 20260503033244 | 57 | 160 | 8.0 | 13.0 | 0.00 | 0.00 | 0.00 | 21 | 1008.0 |
| 20260503032244 | 57 | 162 | 9.0 | 14.0 | 0.00 | 0.00 | 0.00 | 21 | 1008.0 |
| 20260503031252 | 58 | 169 | 7.0 | 10.0 | 0.00 | 0.00 | 0.00 | 21 | 1008.0 |
| 20260503030239 | 58 | 154 | 7.0 | 11.0 | 0.00 | 0.00 | 0.00 | 20 | 1008.0 |
| 20260503025242 | 58 | 150 | 5.0 | 8.0 | 0.00 | 0.00 | 0.00 | 21 | 1007.8 |
| 20260503024243 | 58 | 159 | 5.0 | 8.0 | 0.00 | 0.00 | 0.00 | 22 | 1007.6 |
| 20260503023246 | 59 | 162 | 4.0 | 7.0 | 0.00 | 0.00 | 0.00 | 22 | 1007.6 |
| 20260503022243 | 60 | 158 | 5.0 | 9.0 | 0.00 | 0.00 | 0.00 | 20 | 1007.5 |
| 20260503021246 | 60 | 179 | 4.0 | 8.0 | 0.00 | 0.00 | 0.00 | 19 | 1007.4 |
| 20260503020300 | 62 | 166 | 4.0 | 11.0 | 0.00 | 0.00 | 0.00 | 19 | 1007.4 |
| 20260503015239 | 63 | 139 | 6.0 | 12.0 | 0.00 | 0.00 | 0.00 | 17 | 1007.4 |
| 20260503014240 | 64 | 155 | 5.0 | 9.0 | 0.00 | 0.00 | 0.00 | 17 | 1007.1 |
| 20260503013245 | 65 | 150 | 6.0 | 9.0 | 0.00 | 0.00 | 0.00 | 16 | 1007.1 |
| 20260503012307 | 66 | 132 | 3.0 | 8.0 | 0.00 | 0.00 | 0.00 | 15 | 1006.9 |
| 20260503011249 | 67 | 174 | 3.0 | 9.0 | 0.00 | 0.00 | 0.00 | 15 | 1006.9 |
| 20260503010236 | 68 | 108 | 4.0 | 10.0 | 0.00 | 0.00 | 0.00 | 12 | 1006.9 |
| 20260503005240 | 68 | 100 | 5.0 | 10.0 | 0.00 | 0.00 | 0.00 | 12 | 1006.9 |
| 20260503004301 | 69 | 99 | 9.0 | 12.0 | 0.00 | 0.00 | 0.00 | 11 | 1006.9 |
| 20260503003246 | 69 | 97 | 6.0 | 11.0 | 0.00 | 0.00 | 0.00 | 10 | 1006.9 |
| 20260503002310 | 70 | 103 | 5.0 | 10.0 | 0.00 | 0.00 | 0.00 | 10 | 1007.1 |
| 20260503001253 | 70 | 113 | 5.0 | 14.0 | 0.00 | 0.00 | 0.00 | 10 | 1007.4 |
| 20260503000240 | 71 | 82 | 6.0 | 13.0 | 0.00 | 0.00 | 0.00 | 9 | 1007.4 |
| 20260502235242 | 71 | 90 | 5.0 | 12.0 | 0.00 | 0.00 | 0.00 | 8 | 1007.4 |
| 20260502234306 | 72 | 78 | 5.0 | 10.0 | 0.00 | 0.00 | 0.00 | 9 | 1007.4 |
| 20260502233236 | 72 | 81 | 4.0 | 9.0 | 0.00 | 0.00 | 0.00 | 8 | 1007.4 |
| 20260502232241 | 72 | 80 | 5.0 | 14.0 | 0.00 | 0.00 | 0.00 | 9 | 1007.5 |
| 20260502231245 | 72 | 19 | 6.0 | 10.0 | 0.00 | 0.00 | 0.00 | 8 | 1007.5 |
| 20260502230251 | 72 | 86 | 5.0 | 12.0 | 0.00 | 0.00 | 0.00 | 8 | 1007.5 |
| 20260502224246 | 71 | 44 | 6.0 | 14.0 | 0.00 | 0.00 | 0.00 | 9 | 1008.0 |
| 20260502223252 | 71 | 23 | 3.0 | 10.0 | 0.00 | 0.00 | 0.00 | 9 | 1008.0 |
| 20260502222240 | 71 | 71 | 3.0 | 10.0 | 0.00 | 0.00 | 0.00 | 9 | 1008.1 |
| 20260502221301 | 72 | 55 | 6.0 | 10.0 | 0.00 | 0.00 | 0.00 | 10 | 1008.2 |
| 20260502220238 | 72 | 67 | 3.0 | 11.0 | 0.00 | 0.00 | 0.00 | 9 | 1008.2 |
| 20260502215246 | 71 | 360 | 2.0 | 9.0 | 0.00 | 0.00 | 0.00 | 9 | 1008.7 |
| 20260502214246 | 70 | 59 | 5.0 | 8.0 | 0.00 | 0.00 | 0.00 | 8 | 1008.9 |
| 20260502213307 | 72 | 19 | 6.0 | 10.0 | 0.00 | 0.00 | 0.00 | 10 | 1008.9 |
| 20260502212247 | 71 | 355 | 3.0 | 7.0 | 0.00 | 0.00 | 0.00 | 9 | 1009.3 |
| 20260502211255 | 70 | 133 | 4.0 | 8.0 | 0.00 | 0.00 | 0.00 | 9 | 1009.4 |
| 20260502210237 | 69 | 332 | 2.0 | 9.0 | 0.00 | 0.00 | 0.00 | 12 | 1009.4 |
| 20260502205239 | 70 | 65 | 3.0 | 10.0 | 0.00 | 0.00 | 0.00 | 11 | 1009.8 |
| 20260502204243 | 70 | 5 | 3.0 | 9.0 | 0.00 | 0.00 | 0.00 | 11 | 1009.9 |
| 20260502203252 | 69 | 28 | 7.0 | 10.0 | 0.00 | 0.00 | 0.00 | 12 | 1009.9 |
| 20260502202251 | 69 | 33 | 3.0 | 6.0 | 0.00 | 0.00 | 0.00 | 12 | 1010.0 |
| 20260502201253 | 69 | 28 | 7.0 | 11.0 | 0.00 | 0.00 | 0.00 | 13 | 1010.1 |
| 20260502200238 | 69 | 355 | 6.0 | 11.0 | 0.00 | 0.00 | 0.00 | 11 | 1010.1 |
| 20260502195239 | 69 | 53 | 5.0 | 14.0 | 0.00 | 0.00 | 0.00 | 12 | 1010.3 |
| 20260502194304 | 68 | 107 | 3.0 | 8.0 | 0.00 | 0.00 | 0.00 | 13 | 1010.5 |
| 20260502193306 | 67 | 170 | 4.0 | 6.0 | 0.00 | 0.00 | 0.00 | 12 | 1010.5 |
| 20260502192245 | 67 | 300 | 3.0 | 5.0 | 0.00 | 0.00 | 0.00 | 13 | 1010.6 |
| 20260502191250 | 66 | 80 | 1.0 | 8.0 | 0.00 | 0.00 | 0.00 | 15 | 1010.9 |
| 20260502190236 | 66 | 148 | 3.0 | 9.0 | 0.00 | 0.00 | 0.00 | 12 | 1010.9 |
| 20260502185238 | 66 | 169 | 4.0 | 10.0 | 0.00 | 0.00 | 0.00 | 14 | 1011.1 |
| 20260502184237 | 66 | 76 | 4.0 | 9.0 | 0.00 | 0.00 | 0.00 | 15 | 1011.3 |
| 20260502183242 | 66 | 360 | 2.0 | 10.0 | 0.00 | 0.00 | 0.00 | 13 | 1011.3 |
| 20260502182246 | 64 | 250 | 1.0 | 7.0 | 0.00 | 0.00 | 0.00 | 13 | 1011.4 |
| 20260502181246 | 63 | 192 | 6.0 | 9.0 | 0.00 | 0.00 | 0.00 | 14 | 1011.8 |
| 20260502180252 | 64 | 314 | 2.0 | 8.0 | 0.00 | 0.00 | 0.00 | 14 | 1011.8 |
| 20260502170314 | 60 | 5 | 4.0 | 8.0 | 0.00 | 0.00 | 0.00 | 16 | 1012.3 |
| 20260502164237 | 59 | 193 | 1.0 | 8.0 | 0.00 | 0.00 | 0.00 | 19 | 1012.4 |
| 20260502163237 | 59 | 5 | 4.0 | 8.0 | 0.00 | 0.00 | 0.00 | 17 | 1012.4 |
| 20260502162242 | 59 | 15 | 2.0 | 9.0 | 0.00 | 0.00 | 0.00 | 19 | 1012.4 |
| 20260502161243 | 59 | 336 | 4.0 | 8.0 | 0.00 | 0.00 | 0.00 | 17 | 1012.4 |
| 20260502160259 | 59 | 286 | 6.0 | 9.0 | 0.00 | 0.00 | 0.00 | 22 | 1012.4 |
| 20260502152250 | 55 | 281 | 2.0 | 6.0 | 0.00 | 0.00 | 0.00 | 27 | 1012.9 |
| 20260502151250 | 54 | 232 | 3.0 | 7.0 | 0.00 | 0.00 | 0.00 | 27 | 1013.0 |
| 20260502150250 | 53 | 231 | 5.0 | 8.0 | 0.00 | 0.00 | 0.00 | 28 | 1013.0 |
| 20260502130249 | 42 | 200 | 5.0 | 10.0 | 0.00 | 0.00 | 0.00 | 42 | 1012.5 |
| 20260502123242 | 41 | 191 | 6.0 | 11.0 | 0.00 | 0.00 | 0.00 | 43 | 1012.3 |
| 20260502122241 | 40 | 207 | 6.0 | 12.0 | 0.00 | 0.00 | 0.00 | 44 | 1012.0 |
| 20260502121245 | 40 | 197 | 7.0 | 12.0 | 0.00 | 0.00 | 0.00 | 44 | 1011.9 |
| 20260502120255 | 40 | 195 | 5.0 | 10.0 | 0.00 | 0.00 | 0.00 | 44 | 1011.9 |
| 20260502115241 | 40 | 197 | 8.0 | 11.0 | 0.00 | 0.00 | 0.00 | 44 | 1011.8 |
| 20260502114241 | 41 | 207 | 9.0 | 12.0 | 0.00 | 0.00 | 0.00 | 43 | 1011.8 |
| 20260502113249 | 41 | 180 | 8.0 | 13.0 | 0.00 | 0.00 | 0.00 | 43 | 1011.8 |
| 20260502112252 | 40 | 173 | 10.0 | 12.0 | 0.00 | 0.00 | 0.00 | 45 | 1011.8 |
| 20260502111250 | 40 | 175 | 10.0 | 12.0 | 0.00 | 0.00 | 0.00 | 45 | 1011.9 |
| 20260502110255 | 40 | 172 | 10.0 | 14.0 | 0.00 | 0.00 | 0.00 | 45 | 1011.9 |
| 20260502105240 | 40 | 182 | 10.0 | 13.0 | 0.00 | 0.00 | 0.00 | 46 | 1011.9 |
| 20260502104243 | 40 | 196 | 8.0 | 12.0 | 0.00 | 0.00 | 0.00 | 46 | 1011.9 |
| 20260502103300 | 40 | 171 | 9.0 | 12.0 | 0.00 | 0.00 | 0.00 | 46 | 1011.9 |
| 20260502102241 | 40 | 173 | 8.0 | 11.0 | 0.00 | 0.00 | 0.00 | 46 | 1011.8 |
| 20260502101304 | 40 | 185 | 9.0 | 13.0 | 0.00 | 0.00 | 0.00 | 46 | 1011.8 |
| 20260502100246 | 40 | 173 | 8.0 | 10.0 | 0.00 | 0.00 | 0.00 | 46 | 1011.8 |
| 20260502091247 | 40 | 180 | 6.0 | 9.0 | 0.00 | 0.00 | 0.00 | 46 | 1011.8 |
| 20260502090251 | 40 | 188 | 7.0 | 10.0 | 0.00 | 0.00 | 0.00 | 46 | 1011.8 |
| 20260502071246 | 40 | 163 | 3.0 | 4.0 | 0.00 | 0.00 | 0.00 | 45 | 1012.2 |
| 20260502070250 | 41 | 163 | 2.0 | 6.0 | 0.00 | 0.00 | 0.00 | 43 | 1012.2 |
| 20260502065247 | 40 | 163 | 5.0 | 7.0 | 0.00 | 0.00 | 0.00 | 43 | 1012.2 |
| 20260502064246 | 39 | 151 | 3.0 | 4.0 | 0.00 | 0.00 | 0.00 | 47 | 1012.3 |
| 20260502063249 | 39 | 151 | 3.0 | 4.0 | 0.00 | 0.00 | 0.00 | 46 | 1012.3 |
| 20260502062249 | 40 | 151 | 4.0 | 4.0 | 0.00 | 0.00 | 0.00 | 46 | 1012.3 |
| 20260502061238 | 40 | 151 | 3.0 | 4.0 | 0.00 | 0.00 | 0.00 | 44 | 1012.3 |
| 20260502060243 | 39 | 151 | 3.0 | 5.0 | 0.00 | 0.00 | 0.00 | 48 | 1012.3 |
| 20260502055252 | 38 | 151 | 4.0 | 5.0 | 0.00 | 0.03 | 0.00 | 51 | 1012.3 |
| 20260502054254 | 39 | 150 | 3.0 | 5.0 | 0.00 | 0.03 | 0.00 | 50 | 1012.2 |
| 20260502053257 | 39 | 148 | 3.0 | 5.0 | 0.00 | 0.03 | 0.00 | 50 | 1012.2 |
| 20260502052255 | 40 | 148 | 4.0 | 5.0 | 0.00 | 0.03 | 0.00 | 49 | 1012.1 |
| 20260502051259 | 41 | 146 | 3.0 | 5.0 | 0.00 | 0.03 | 0.00 | 47 | 1012.0 |
| 20260502050246 | 42 | 146 | 2.0 | 4.0 | 0.00 | 0.03 | 0.00 | 45 | 1012.0 |
| 20260502045254 | 43 | 144 | 2.0 | 5.0 | 0.00 | 0.07 | 0.00 | 43 | 1011.9 |
| 20260502044253 | 43 | 143 | 2.0 | 3.0 | 0.00 | 0.07 | 0.00 | 47 | 1011.8 |
| 20260502043256 | 43 | 143 | 3.0 | 4.0 | 0.00 | 0.07 | 0.00 | 45 | 1011.8 |
| 20260502042301 | 43 | 143 | 0.0 | 4.0 | 0.00 | 0.07 | 0.00 | 47 | 1011.8 |
| 20260502041258 | 44 | 143 | 2.0 | 4.0 | 0.00 | 0.07 | 0.00 | 45 | 1011.6 |